owner,sensor,date,latitude,longitude,air_temperature,qcFlag 
WAVCIS,ioos:station:WAVCIS:CSI03:1,2010-09-01T00:00:00Z,29.4412,-92.0613,28.18,11111222 
WAVCIS,ioos:station:WAVCIS:CSI03:1,2010-09-01T01:00:00Z,29.4412,-92.0613,26.79,11111222 
WAVCIS,ioos:station:WAVCIS:CSI03:1,2010-09-01T02:00:00Z,29.4412,-92.0613,27.39,11111222 
WAVCIS,ioos:station:WAVCIS:CSI03:1,2010-09-01T03:00:00Z,29.4412,-92.0613,27.45,11111222 
WAVCIS,ioos:station:WAVCIS:CSI03:1,2010-09-01T04:00:00Z,29.4412,-92.0613,27.92,11111222 
WAVCIS,ioos:station:WAVCIS:CSI03:1,2010-09-01T05:00:00Z,29.4412,-92.0613,27.74,11111222 
WAVCIS,ioos:station:WAVCIS:CSI03:1,2010-09-01T06:00:00Z,29.4412,-92.0613,27.61,11111222 
WAVCIS,ioos:station:WAVCIS:CSI03:1,2010-09-01T07:00:00Z,29.4412,-92.0613,27.43,11111222 
WAVCIS,ioos:station:WAVCIS:CSI03:1,2010-09-01T08:00:00Z,29.4412,-92.0613,27.35,11111222 
WAVCIS,ioos:station:WAVCIS:CSI03:1,2010-09-01T09:00:00Z,29.4412,-92.0613,27.27,11111222 
WAVCIS,ioos:station:WAVCIS:CSI03:1,2010-09-01T10:00:00Z,29.4412,-92.0613,27.27,11111222 
WAVCIS,ioos:station:WAVCIS:CSI03:1,2010-09-01T11:00:00Z,29.4412,-92.0613,27.08,11111222 
WAVCIS,ioos:station:WAVCIS:CSI03:1,2010-09-01T12:00:00Z,29.4412,-92.0613,26.7,11111222 
WAVCIS,ioos:station:WAVCIS:CSI03:1,2010-09-01T13:00:00Z,29.4412,-92.0613,27.08,11111222 
WAVCIS,ioos:station:WAVCIS:CSI03:1,2010-09-01T14:00:00Z,29.4412,-92.0613,27.09,11111222 
WAVCIS,ioos:station:WAVCIS:CSI03:1,2010-09-01T15:00:00Z,29.4412,-92.0613,27.09,11111222 
WAVCIS,ioos:station:WAVCIS:CSI03:1,2010-09-01T16:00:00Z,29.4412,-92.0613,27.4,11111222 
WAVCIS,ioos:station:WAVCIS:CSI03:1,2010-09-01T17:00:00Z,29.4412,-92.0613,27.75,11111222 
WAVCIS,ioos:station:WAVCIS:CSI03:1,2010-09-01T18:00:00Z,29.4412,-92.0613,28.21,11111222 
WAVCIS,ioos:station:WAVCIS:CSI03:1,2010-09-01T19:00:00Z,29.4412,-92.0613,28.52,11111222 
WAVCIS,ioos:station:WAVCIS:CSI03:1,2010-09-01T20:00:00Z,29.4412,-92.0613,28.54,11111222 
WAVCIS,ioos:station:WAVCIS:CSI03:1,2010-09-01T21:00:00Z,29.4412,-92.0613,28.66,11111222 
WAVCIS,ioos:station:WAVCIS:CSI03:1,2010-09-01T22:00:00Z,29.4412,-92.0613,28.79,11111222 
WAVCIS,ioos:station:WAVCIS:CSI03:1,2010-09-01T23:00:00Z,29.4412,-92.0613,29.09,11111222 
WAVCIS,ioos:station:WAVCIS:CSI03:1,2010-09-02T00:00:00Z,29.4412,-92.0613,28.98,11111222 
WAVCIS,ioos:station:WAVCIS:CSI03:1,2010-09-02T01:00:00Z,29.4412,-92.0613,28.98,11111222 
WAVCIS,ioos:station:WAVCIS:CSI03:1,2010-09-02T02:00:00Z,29.4412,-92.0613,28.8,11111222 
WAVCIS,ioos:station:WAVCIS:CSI03:1,2010-09-02T03:00:00Z,29.4412,-92.0613,28.62,11111222 
WAVCIS,ioos:station:WAVCIS:CSI03:1,2010-09-02T04:00:00Z,29.4412,-92.0613,28.47,11111222 
WAVCIS,ioos:station:WAVCIS:CSI03:1,2010-09-02T05:00:00Z,29.4412,-92.0613,28.26,11111222 
WAVCIS,ioos:station:WAVCIS:CSI03:1,2010-09-02T06:00:00Z,29.4412,-92.0613,28.21,11111222 
WAVCIS,ioos:station:WAVCIS:CSI03:1,2010-09-02T07:00:00Z,29.4412,-92.0613,27.92,11111222 
WAVCIS,ioos:station:WAVCIS:CSI03:1,2010-09-02T08:00:00Z,29.4412,-92.0613,27.6,11111222 
WAVCIS,ioos:station:WAVCIS:CSI03:1,2010-09-02T09:00:00Z,29.4412,-92.0613,27.55,11111222 
WAVCIS,ioos:station:WAVCIS:CSI03:1,2010-09-02T10:00:00Z,29.4412,-92.0613,27.82,11111222 
WAVCIS,ioos:station:WAVCIS:CSI03:1,2010-09-02T11:00:00Z,29.4412,-92.0613,27.45,11111222 
WAVCIS,ioos:station:WAVCIS:CSI03:1,2010-09-02T12:00:00Z,29.4412,-92.0613,27.35,11111222 
WAVCIS,ioos:station:WAVCIS:CSI03:1,2010-09-02T13:00:00Z,29.4412,-92.0613,26.14,11111222 
WAVCIS,ioos:station:WAVCIS:CSI03:1,2010-09-02T14:00:00Z,29.4412,-92.0613,27.09,11111222 
WAVCIS,ioos:station:WAVCIS:CSI03:1,2010-09-02T15:00:00Z,29.4412,-92.0613,27.41,11111222 
WAVCIS,ioos:station:WAVCIS:CSI03:1,2010-09-02T16:00:00Z,29.4412,-92.0613,27.48,11111222 
WAVCIS,ioos:station:WAVCIS:CSI03:1,2010-09-02T17:00:00Z,29.4412,-92.0613,28.13,11111222 
WAVCIS,ioos:station:WAVCIS:CSI03:1,2010-09-02T18:00:00Z,29.4412,-92.0613,28.37,11111222 
WAVCIS,ioos:station:WAVCIS:CSI03:1,2010-09-02T19:00:00Z,29.4412,-92.0613,28.43,11111222 
WAVCIS,ioos:station:WAVCIS:CSI03:1,2010-09-02T20:00:00Z,29.4412,-92.0613,28.43,11111222 
WAVCIS,ioos:station:WAVCIS:CSI03:1,2010-09-02T21:00:00Z,29.4412,-92.0613,28.62,11111222 
WAVCIS,ioos:station:WAVCIS:CSI03:1,2010-09-02T22:00:00Z,29.4412,-92.0613,28.76,11111222 
WAVCIS,ioos:station:WAVCIS:CSI03:1,2010-09-02T23:00:00Z,29.4412,-92.0613,29.21,11111222 
WAVCIS,ioos:station:WAVCIS:CSI03:1,2010-09-03T00:00:00Z,29.4412,-92.0613,29.07,11111222 
WAVCIS,ioos:station:WAVCIS:CSI03:1,2010-09-03T01:00:00Z,29.4412,-92.0613,28.81,11111222 
WAVCIS,ioos:station:WAVCIS:CSI03:1,2010-09-03T02:00:00Z,29.4412,-92.0613,28.76,11111222 
WAVCIS,ioos:station:WAVCIS:CSI03:1,2010-09-03T03:00:00Z,29.4412,-92.0613,28.58,11111222 
WAVCIS,ioos:station:WAVCIS:CSI03:1,2010-09-03T04:00:00Z,29.4412,-92.0613,28.4,11111222 
WAVCIS,ioos:station:WAVCIS:CSI03:1,2010-09-03T05:00:00Z,29.4412,-92.0613,28.34,11111222 
WAVCIS,ioos:station:WAVCIS:CSI03:1,2010-09-03T06:00:00Z,29.4412,-92.0613,28.61,11111222 
WAVCIS,ioos:station:WAVCIS:CSI03:1,2010-09-03T07:00:00Z,29.4412,-92.0613,29.29,11111222 
WAVCIS,ioos:station:WAVCIS:CSI03:1,2010-09-03T08:00:00Z,29.4412,-92.0613,29.06,11111222 
WAVCIS,ioos:station:WAVCIS:CSI03:1,2010-09-03T09:00:00Z,29.4412,-92.0613,29.05,11111222 
WAVCIS,ioos:station:WAVCIS:CSI03:1,2010-09-03T10:00:00Z,29.4412,-92.0613,28.18,11111222 
WAVCIS,ioos:station:WAVCIS:CSI03:1,2010-09-03T11:00:00Z,29.4412,-92.0613,28.04,11111222 
WAVCIS,ioos:station:WAVCIS:CSI03:1,2010-09-03T12:00:00Z,29.4412,-92.0613,27.94,11111222 
WAVCIS,ioos:station:WAVCIS:CSI03:1,2010-09-03T13:00:00Z,29.4412,-92.0613,28.0,11111222 
WAVCIS,ioos:station:WAVCIS:CSI03:1,2010-09-03T14:00:00Z,29.4412,-92.0613,27.17,11111222 
WAVCIS,ioos:station:WAVCIS:CSI03:1,2010-09-03T15:00:00Z,29.4412,-92.0613,27.53,11111222 
WAVCIS,ioos:station:WAVCIS:CSI03:1,2010-09-03T16:00:00Z,29.4412,-92.0613,28.08,11111222 
WAVCIS,ioos:station:WAVCIS:CSI03:1,2010-09-03T17:00:00Z,29.4412,-92.0613,28.62,11111222 
WAVCIS,ioos:station:WAVCIS:CSI03:1,2010-09-03T18:00:00Z,29.4412,-92.0613,28.3,11111222 
WAVCIS,ioos:station:WAVCIS:CSI03:1,2010-09-03T19:00:00Z,29.4412,-92.0613,28.64,11111222 
WAVCIS,ioos:station:WAVCIS:CSI03:1,2010-09-03T20:00:00Z,29.4412,-92.0613,29.36,11111222 
WAVCIS,ioos:station:WAVCIS:CSI03:1,2010-09-03T21:00:00Z,29.4412,-92.0613,29.13,11111222 
WAVCIS,ioos:station:WAVCIS:CSI03:1,2010-09-03T22:00:00Z,29.4412,-92.0613,29.21,11111222 
WAVCIS,ioos:station:WAVCIS:CSI03:1,2010-09-03T23:00:00Z,29.4412,-92.0613,30.01,11111222 
WAVCIS,ioos:station:WAVCIS:CSI03:1,2010-09-04T00:00:00Z,29.4412,-92.0613,29.38,11111222 
WAVCIS,ioos:station:WAVCIS:CSI03:1,2010-09-04T01:00:00Z,29.4412,-92.0613,29.49,11111222 
WAVCIS,ioos:station:WAVCIS:CSI03:1,2010-09-04T02:00:00Z,29.4412,-92.0613,29.24,11111222 
WAVCIS,ioos:station:WAVCIS:CSI03:1,2010-09-04T03:00:00Z,29.4412,-92.0613,28.94,11111222 
WAVCIS,ioos:station:WAVCIS:CSI03:1,2010-09-04T04:00:00Z,29.4412,-92.0613,29.57,11111222 
WAVCIS,ioos:station:WAVCIS:CSI03:1,2010-09-04T05:00:00Z,29.4412,-92.0613,28.78,11111222 
WAVCIS,ioos:station:WAVCIS:CSI03:1,2010-09-04T06:00:00Z,29.4412,-92.0613,28.69,11111222 
WAVCIS,ioos:station:WAVCIS:CSI03:1,2010-09-04T07:00:00Z,29.4412,-92.0613,28.15,11111222 
WAVCIS,ioos:station:WAVCIS:CSI03:1,2010-09-04T08:00:00Z,29.4412,-92.0613,28.27,11111222 
WAVCIS,ioos:station:WAVCIS:CSI03:1,2010-09-04T09:00:00Z,29.4412,-92.0613,28.16,11111222 
WAVCIS,ioos:station:WAVCIS:CSI03:1,2010-09-04T10:00:00Z,29.4412,-92.0613,27.87,11111222 
WAVCIS,ioos:station:WAVCIS:CSI03:1,2010-09-04T11:00:00Z,29.4412,-92.0613,27.71,11111222 
WAVCIS,ioos:station:WAVCIS:CSI03:1,2010-09-04T12:00:00Z,29.4412,-92.0613,27.55,11111222 
WAVCIS,ioos:station:WAVCIS:CSI03:1,2010-09-04T13:00:00Z,29.4412,-92.0613,26.45,11111222 
WAVCIS,ioos:station:WAVCIS:CSI03:1,2010-09-04T14:00:00Z,29.4412,-92.0613,26.24,11111222 
WAVCIS,ioos:station:WAVCIS:CSI03:1,2010-09-04T15:00:00Z,29.4412,-92.0613,26.48,11111222 
WAVCIS,ioos:station:WAVCIS:CSI03:1,2010-09-04T16:00:00Z,29.4412,-92.0613,27.08,11111222 
WAVCIS,ioos:station:WAVCIS:CSI03:1,2010-09-04T17:00:00Z,29.4412,-92.0613,27.72,11111222 
WAVCIS,ioos:station:WAVCIS:CSI03:1,2010-09-04T18:00:00Z,29.4412,-92.0613,28.38,11111222 
WAVCIS,ioos:station:WAVCIS:CSI03:1,2010-09-04T19:00:00Z,29.4412,-92.0613,28.95,11111222 
WAVCIS,ioos:station:WAVCIS:CSI03:1,2010-09-04T20:00:00Z,29.4412,-92.0613,29.22,11111222 
WAVCIS,ioos:station:WAVCIS:CSI03:1,2010-09-04T21:00:00Z,29.4412,-92.0613,29.27,11111222 
WAVCIS,ioos:station:WAVCIS:CSI03:1,2010-09-04T22:00:00Z,29.4412,-92.0613,29.59,11111222 
WAVCIS,ioos:station:WAVCIS:CSI03:1,2010-09-04T23:00:00Z,29.4412,-92.0613,29.73,11111222 
WAVCIS,ioos:station:WAVCIS:CSI03:1,2010-09-05T00:00:00Z,29.4412,-92.0613,27.5,11111222 
WAVCIS,ioos:station:WAVCIS:CSI03:1,2010-09-05T01:00:00Z,29.4412,-92.0613,25.78,11111222 
WAVCIS,ioos:station:WAVCIS:CSI03:1,2010-09-05T02:00:00Z,29.4412,-92.0613,26.51,11111222 
WAVCIS,ioos:station:WAVCIS:CSI03:1,2010-09-05T03:00:00Z,29.4412,-92.0613,27.16,11111222 
WAVCIS,ioos:station:WAVCIS:CSI03:1,2010-09-05T04:00:00Z,29.4412,-92.0613,27.25,11111222 
WAVCIS,ioos:station:WAVCIS:CSI03:1,2010-09-05T05:00:00Z,29.4412,-92.0613,27.31,11111222 
WAVCIS,ioos:station:WAVCIS:CSI03:1,2010-09-05T06:00:00Z,29.4412,-92.0613,27.48,11111222 
WAVCIS,ioos:station:WAVCIS:CSI03:1,2010-09-05T07:00:00Z,29.4412,-92.0613,27.42,11111222 
WAVCIS,ioos:station:WAVCIS:CSI03:1,2010-09-05T08:00:00Z,29.4412,-92.0613,27.14,11111222 
WAVCIS,ioos:station:WAVCIS:CSI03:1,2010-09-05T09:00:00Z,29.4412,-92.0613,26.84,11111222 
WAVCIS,ioos:station:WAVCIS:CSI03:1,2010-09-05T10:00:00Z,29.4412,-92.0613,26.51,11111222 
WAVCIS,ioos:station:WAVCIS:CSI03:1,2010-09-05T11:00:00Z,29.4412,-92.0613,26.21,11111222 
WAVCIS,ioos:station:WAVCIS:CSI03:1,2010-09-05T12:00:00Z,29.4412,-92.0613,26.08,11111222 
WAVCIS,ioos:station:WAVCIS:CSI03:1,2010-09-05T13:00:00Z,29.4412,-92.0613,26.71,11111222 
WAVCIS,ioos:station:WAVCIS:CSI03:1,2010-09-05T14:00:00Z,29.4412,-92.0613,26.88,11111222 
WAVCIS,ioos:station:WAVCIS:CSI03:1,2010-09-05T15:00:00Z,29.4412,-92.0613,27.06,11111222 
WAVCIS,ioos:station:WAVCIS:CSI03:1,2010-09-05T16:00:00Z,29.4412,-92.0613,27.2,11111222 
WAVCIS,ioos:station:WAVCIS:CSI03:1,2010-09-05T17:00:00Z,29.4412,-92.0613,27.46,11111222 
WAVCIS,ioos:station:WAVCIS:CSI03:1,2010-09-05T18:00:00Z,29.4412,-92.0613,27.64,11111222 
WAVCIS,ioos:station:WAVCIS:CSI03:1,2010-09-05T19:00:00Z,29.4412,-92.0613,28.01,11111222 
WAVCIS,ioos:station:WAVCIS:CSI03:1,2010-09-05T20:00:00Z,29.4412,-92.0613,28.49,11111222 
WAVCIS,ioos:station:WAVCIS:CSI03:1,2010-09-05T21:00:00Z,29.4412,-92.0613,27.97,11111222 
WAVCIS,ioos:station:WAVCIS:CSI03:1,2010-09-05T22:00:00Z,29.4412,-92.0613,27.73,11111222 
WAVCIS,ioos:station:WAVCIS:CSI03:1,2010-09-05T23:00:00Z,29.4412,-92.0613,28.1,11111222 
WAVCIS,ioos:station:WAVCIS:CSI03:1,2010-09-06T00:00:00Z,29.4412,-92.0613,28.16,11111222 
WAVCIS,ioos:station:WAVCIS:CSI03:1,2010-09-06T01:00:00Z,29.4412,-92.0613,28.23,11111222 
WAVCIS,ioos:station:WAVCIS:CSI03:1,2010-09-06T02:00:00Z,29.4412,-92.0613,27.9,11111222 
WAVCIS,ioos:station:WAVCIS:CSI03:1,2010-09-06T03:00:00Z,29.4412,-92.0613,27.64,11111222 
WAVCIS,ioos:station:WAVCIS:CSI03:1,2010-09-06T04:00:00Z,29.4412,-92.0613,27.71,11111222 
WAVCIS,ioos:station:WAVCIS:CSI03:1,2010-09-06T05:00:00Z,29.4412,-92.0613,27.69,11111222 
WAVCIS,ioos:station:WAVCIS:CSI03:1,2010-09-06T06:00:00Z,29.4412,-92.0613,27.58,11111222 
WAVCIS,ioos:station:WAVCIS:CSI03:1,2010-09-06T07:00:00Z,29.4412,-92.0613,27.7,11111222 
WAVCIS,ioos:station:WAVCIS:CSI03:1,2010-09-06T08:00:00Z,29.4412,-92.0613,27.9,11111222 
WAVCIS,ioos:station:WAVCIS:CSI03:1,2010-09-06T09:00:00Z,29.4412,-92.0613,28.06,11111222 
WAVCIS,ioos:station:WAVCIS:CSI03:1,2010-09-06T10:00:00Z,29.4412,-92.0613,28.24,11111222 
WAVCIS,ioos:station:WAVCIS:CSI03:1,2010-09-06T11:00:00Z,29.4412,-92.0613,28.24,11111222 
WAVCIS,ioos:station:WAVCIS:CSI03:1,2010-09-06T12:00:00Z,29.4412,-92.0613,28.33,11111222 
WAVCIS,ioos:station:WAVCIS:CSI03:1,2010-09-06T13:00:00Z,29.4412,-92.0613,28.35,11111222 
WAVCIS,ioos:station:WAVCIS:CSI03:1,2010-09-06T14:00:00Z,29.4412,-92.0613,27.41,11111222 
WAVCIS,ioos:station:WAVCIS:CSI03:1,2010-09-06T15:00:00Z,29.4412,-92.0613,28.19,11111222 
WAVCIS,ioos:station:WAVCIS:CSI03:1,2010-09-06T16:00:00Z,29.4412,-92.0613,28.67,11111222 
WAVCIS,ioos:station:WAVCIS:CSI03:1,2010-09-06T17:00:00Z,29.4412,-92.0613,26.55,11111222 
WAVCIS,ioos:station:WAVCIS:CSI03:1,2010-09-06T18:00:00Z,29.4412,-92.0613,27.94,11111222 
WAVCIS,ioos:station:WAVCIS:CSI03:1,2010-09-06T19:00:00Z,29.4412,-92.0613,28.6,11111222 
WAVCIS,ioos:station:WAVCIS:CSI03:1,2010-09-06T20:00:00Z,29.4412,-92.0613,29.02,11111222 
WAVCIS,ioos:station:WAVCIS:CSI03:1,2010-09-06T21:00:00Z,29.4412,-92.0613,28.3,11111222 
WAVCIS,ioos:station:WAVCIS:CSI03:1,2010-09-06T22:00:00Z,29.4412,-92.0613,28.22,11111222 
WAVCIS,ioos:station:WAVCIS:CSI03:1,2010-09-06T23:00:00Z,29.4412,-92.0613,28.25,11111222 
WAVCIS,ioos:station:WAVCIS:CSI03:1,2010-09-07T00:00:00Z,29.4412,-92.0613,28.28,11111222 
WAVCIS,ioos:station:WAVCIS:CSI03:1,2010-09-07T01:00:00Z,29.4412,-92.0613,28.44,11111222 
WAVCIS,ioos:station:WAVCIS:CSI03:1,2010-09-07T02:00:00Z,29.4412,-92.0613,28.36,11111222 
WAVCIS,ioos:station:WAVCIS:CSI03:1,2010-09-07T03:00:00Z,29.4412,-92.0613,28.56,11111222 
WAVCIS,ioos:station:WAVCIS:CSI03:1,2010-09-07T04:00:00Z,29.4412,-92.0613,28.88,11111222 
WAVCIS,ioos:station:WAVCIS:CSI03:1,2010-09-07T05:00:00Z,29.4412,-92.0613,28.93,11111222 
WAVCIS,ioos:station:WAVCIS:CSI03:1,2010-09-07T06:00:00Z,29.4412,-92.0613,28.95,11111222 
WAVCIS,ioos:station:WAVCIS:CSI03:1,2010-09-07T07:00:00Z,29.4412,-92.0613,28.89,11111222 
WAVCIS,ioos:station:WAVCIS:CSI03:1,2010-09-07T08:00:00Z,29.4412,-92.0613,28.81,11111222 
WAVCIS,ioos:station:WAVCIS:CSI03:1,2010-09-07T09:00:00Z,29.4412,-92.0613,28.83,11111222 
WAVCIS,ioos:station:WAVCIS:CSI03:1,2010-09-07T10:00:00Z,29.4412,-92.0613,28.85,11111222 
WAVCIS,ioos:station:WAVCIS:CSI03:1,2010-09-07T11:00:00Z,29.4412,-92.0613,28.94,11111222 
WAVCIS,ioos:station:WAVCIS:CSI03:1,2010-09-07T12:00:00Z,29.4412,-92.0613,28.91,11111222 
WAVCIS,ioos:station:WAVCIS:CSI03:1,2010-09-07T13:00:00Z,29.4412,-92.0613,29.0,11111222 
WAVCIS,ioos:station:WAVCIS:CSI03:1,2010-09-07T14:00:00Z,29.4412,-92.0613,29.05,11111222 
WAVCIS,ioos:station:WAVCIS:CSI03:1,2010-09-07T15:00:00Z,29.4412,-92.0613,29.06,11111222 
WAVCIS,ioos:station:WAVCIS:CSI03:1,2010-09-07T16:00:00Z,29.4412,-92.0613,29.11,11111222 
WAVCIS,ioos:station:WAVCIS:CSI03:1,2010-09-07T17:00:00Z,29.4412,-92.0613,29.09,11111222 
WAVCIS,ioos:station:WAVCIS:CSI03:1,2010-09-07T18:00:00Z,29.4412,-92.0613,29.17,11111222 
WAVCIS,ioos:station:WAVCIS:CSI03:1,2010-09-07T19:00:00Z,29.4412,-92.0613,29.25,11111222 
WAVCIS,ioos:station:WAVCIS:CSI03:1,2010-09-07T20:00:00Z,29.4412,-92.0613,29.28,11111222 
WAVCIS,ioos:station:WAVCIS:CSI03:1,2010-09-07T21:00:00Z,29.4412,-92.0613,29.25,11111222 
WAVCIS,ioos:station:WAVCIS:CSI03:1,2010-09-07T22:00:00Z,29.4412,-92.0613,27.71,11111222 
WAVCIS,ioos:station:WAVCIS:CSI03:1,2010-09-07T23:00:00Z,29.4412,-92.0613,29.16,11111222 
WAVCIS,ioos:station:WAVCIS:CSI03:1,2010-09-08T00:00:00Z,29.4412,-92.0613,29.13,11111222 
WAVCIS,ioos:station:WAVCIS:CSI03:1,2010-09-08T01:00:00Z,29.4412,-92.0613,29.13,11111222 
WAVCIS,ioos:station:WAVCIS:CSI03:1,2010-09-08T02:00:00Z,29.4412,-92.0613,28.86,11111222 
WAVCIS,ioos:station:WAVCIS:CSI03:1,2010-09-08T03:00:00Z,29.4412,-92.0613,28.92,11111222 
WAVCIS,ioos:station:WAVCIS:CSI03:1,2010-09-08T04:00:00Z,29.4412,-92.0613,28.99,11111222 
WAVCIS,ioos:station:WAVCIS:CSI03:1,2010-09-08T05:00:00Z,29.4412,-92.0613,28.88,11111222 
WAVCIS,ioos:station:WAVCIS:CSI03:1,2010-09-08T06:00:00Z,29.4412,-92.0613,28.8,11111222 
WAVCIS,ioos:station:WAVCIS:CSI03:1,2010-09-08T07:00:00Z,29.4412,-92.0613,28.84,11111222 
WAVCIS,ioos:station:WAVCIS:CSI03:1,2010-09-08T08:00:00Z,29.4412,-92.0613,28.7,11111222 
WAVCIS,ioos:station:WAVCIS:CSI03:1,2010-09-08T09:00:00Z,29.4412,-92.0613,28.71,11111222 
WAVCIS,ioos:station:WAVCIS:CSI03:1,2010-09-08T10:00:00Z,29.4412,-92.0613,28.61,11111222 
WAVCIS,ioos:station:WAVCIS:CSI03:1,2010-09-08T11:00:00Z,29.4412,-92.0613,28.53,11111222 
WAVCIS,ioos:station:WAVCIS:CSI03:1,2010-09-08T12:00:00Z,29.4412,-92.0613,28.52,11111222 
WAVCIS,ioos:station:WAVCIS:CSI03:1,2010-09-08T13:00:00Z,29.4412,-92.0613,28.62,11111222 
WAVCIS,ioos:station:WAVCIS:CSI03:1,2010-09-08T14:00:00Z,29.4412,-92.0613,28.65,11111222 
WAVCIS,ioos:station:WAVCIS:CSI03:1,2010-09-08T15:00:00Z,29.4412,-92.0613,28.83,11111222 
WAVCIS,ioos:station:WAVCIS:CSI03:1,2010-09-08T16:00:00Z,29.4412,-92.0613,28.8,11111222 
WAVCIS,ioos:station:WAVCIS:CSI03:1,2010-09-08T17:00:00Z,29.4412,-92.0613,28.85,11111222 
WAVCIS,ioos:station:WAVCIS:CSI03:1,2010-09-08T18:00:00Z,29.4412,-92.0613,28.91,11111222 
WAVCIS,ioos:station:WAVCIS:CSI03:1,2010-09-08T19:00:00Z,29.4412,-92.0613,28.89,11111222 
WAVCIS,ioos:station:WAVCIS:CSI03:1,2010-09-08T20:00:00Z,29.4412,-92.0613,28.92,11111222 
WAVCIS,ioos:station:WAVCIS:CSI03:1,2010-09-08T21:00:00Z,29.4412,-92.0613,28.95,11111222 
WAVCIS,ioos:station:WAVCIS:CSI03:1,2010-09-08T22:00:00Z,29.4412,-92.0613,28.97,11111222 
WAVCIS,ioos:station:WAVCIS:CSI03:1,2010-09-08T23:00:00Z,29.4412,-92.0613,29.01,11111222 
WAVCIS,ioos:station:WAVCIS:CSI03:1,2010-09-09T00:00:00Z,29.4412,-92.0613,29.07,11111222 
WAVCIS,ioos:station:WAVCIS:CSI03:1,2010-09-09T01:00:00Z,29.4412,-92.0613,28.86,11111222 
WAVCIS,ioos:station:WAVCIS:CSI03:1,2010-09-09T02:00:00Z,29.4412,-92.0613,28.84,11111222 
WAVCIS,ioos:station:WAVCIS:CSI03:1,2010-09-09T03:00:00Z,29.4412,-92.0613,28.75,11111222 
WAVCIS,ioos:station:WAVCIS:CSI03:1,2010-09-09T04:00:00Z,29.4412,-92.0613,28.61,11111222 
WAVCIS,ioos:station:WAVCIS:CSI03:1,2010-09-09T05:00:00Z,29.4412,-92.0613,28.69,11111222 
WAVCIS,ioos:station:WAVCIS:CSI03:1,2010-09-09T06:00:00Z,29.4412,-92.0613,28.56,11111222 
WAVCIS,ioos:station:WAVCIS:CSI03:1,2010-09-09T07:00:00Z,29.4412,-92.0613,29.7,11111222 
WAVCIS,ioos:station:WAVCIS:CSI03:1,2010-09-09T08:00:00Z,29.4412,-92.0613,28.62,11111222 
WAVCIS,ioos:station:WAVCIS:CSI03:1,2010-09-09T09:00:00Z,29.4412,-92.0613,28.72,11111222 
WAVCIS,ioos:station:WAVCIS:CSI03:1,2010-09-09T10:00:00Z,29.4412,-92.0613,29.75,11111222 
WAVCIS,ioos:station:WAVCIS:CSI03:1,2010-09-09T11:00:00Z,29.4412,-92.0613,29.56,11111222 
WAVCIS,ioos:station:WAVCIS:CSI03:1,2010-09-09T12:00:00Z,29.4412,-92.0613,29.1,11111222 
WAVCIS,ioos:station:WAVCIS:CSI03:1,2010-09-09T13:00:00Z,29.4412,-92.0613,29.33,11111222 
WAVCIS,ioos:station:WAVCIS:CSI03:1,2010-09-09T14:00:00Z,29.4412,-92.0613,29.86,11111222 
WAVCIS,ioos:station:WAVCIS:CSI03:1,2010-09-09T15:00:00Z,29.4412,-92.0613,30.07,11111222 
WAVCIS,ioos:station:WAVCIS:CSI03:1,2010-09-09T16:00:00Z,29.4412,-92.0613,29.65,11111222 
WAVCIS,ioos:station:WAVCIS:CSI03:1,2010-09-09T17:00:00Z,29.4412,-92.0613,29.68,11111222 
WAVCIS,ioos:station:WAVCIS:CSI03:1,2010-09-09T18:00:00Z,29.4412,-92.0613,29.53,11111222 
WAVCIS,ioos:station:WAVCIS:CSI03:1,2010-09-09T19:00:00Z,29.4412,-92.0613,30.26,11111222 
WAVCIS,ioos:station:WAVCIS:CSI03:1,2010-09-09T20:00:00Z,29.4412,-92.0613,29.67,11111222 
WAVCIS,ioos:station:WAVCIS:CSI03:1,2010-09-09T21:00:00Z,29.4412,-92.0613,29.85,11111222 
WAVCIS,ioos:station:WAVCIS:CSI03:1,2010-09-09T22:00:00Z,29.4412,-92.0613,29.76,11111222 
WAVCIS,ioos:station:WAVCIS:CSI03:1,2010-09-09T23:00:00Z,29.4412,-92.0613,30.24,11111222 
WAVCIS,ioos:station:WAVCIS:CSI03:1,2010-09-10T00:00:00Z,29.4412,-92.0613,29.67,11111222 
WAVCIS,ioos:station:WAVCIS:CSI03:1,2010-09-10T01:00:00Z,29.4412,-92.0613,29.29,11111222 
WAVCIS,ioos:station:WAVCIS:CSI03:1,2010-09-10T02:00:00Z,29.4412,-92.0613,29.36,11111222 
WAVCIS,ioos:station:WAVCIS:CSI03:1,2010-09-10T03:00:00Z,29.4412,-92.0613,29.47,11111222 
WAVCIS,ioos:station:WAVCIS:CSI03:1,2010-09-10T04:00:00Z,29.4412,-92.0613,28.85,11111222 
WAVCIS,ioos:station:WAVCIS:CSI03:1,2010-09-10T05:00:00Z,29.4412,-92.0613,28.91,11111222 
WAVCIS,ioos:station:WAVCIS:CSI03:1,2010-09-10T06:00:00Z,29.4412,-92.0613,28.93,11111222 
WAVCIS,ioos:station:WAVCIS:CSI03:1,2010-09-10T07:00:00Z,29.4412,-92.0613,28.96,11111222 
WAVCIS,ioos:station:WAVCIS:CSI03:1,2010-09-10T08:00:00Z,29.4412,-92.0613,28.87,11111222 
WAVCIS,ioos:station:WAVCIS:CSI03:1,2010-09-10T09:00:00Z,29.4412,-92.0613,29.45,11111222 
WAVCIS,ioos:station:WAVCIS:CSI03:1,2010-09-10T10:00:00Z,29.4412,-92.0613,29.18,11111222 
WAVCIS,ioos:station:WAVCIS:CSI03:1,2010-09-10T11:00:00Z,29.4412,-92.0613,29.21,11111222 
WAVCIS,ioos:station:WAVCIS:CSI03:1,2010-09-10T12:00:00Z,29.4412,-92.0613,29.06,11111222 
WAVCIS,ioos:station:WAVCIS:CSI03:1,2010-09-10T13:00:00Z,29.4412,-92.0613,30.57,11111222 
WAVCIS,ioos:station:WAVCIS:CSI03:1,2010-09-10T14:00:00Z,29.4412,-92.0613,30.57,11111222 
WAVCIS,ioos:station:WAVCIS:CSI03:1,2010-09-10T15:00:00Z,29.4412,-92.0613,30.08,11111222 
WAVCIS,ioos:station:WAVCIS:CSI03:1,2010-09-10T16:00:00Z,29.4412,-92.0613,30.88,11111222 
WAVCIS,ioos:station:WAVCIS:CSI03:1,2010-09-10T17:00:00Z,29.4412,-92.0613,30.01,11111222 
WAVCIS,ioos:station:WAVCIS:CSI03:1,2010-09-10T18:00:00Z,29.4412,-92.0613,29.78,11111222 
WAVCIS,ioos:station:WAVCIS:CSI03:1,2010-09-10T19:00:00Z,29.4412,-92.0613,30.09,11111222 
WAVCIS,ioos:station:WAVCIS:CSI03:1,2010-09-10T20:00:00Z,29.4412,-92.0613,30.38,11111222 
WAVCIS,ioos:station:WAVCIS:CSI03:1,2010-09-10T21:00:00Z,29.4412,-92.0613,30.82,11111222 
WAVCIS,ioos:station:WAVCIS:CSI03:1,2010-09-10T22:00:00Z,29.4412,-92.0613,31.53,11111222 
WAVCIS,ioos:station:WAVCIS:CSI03:1,2010-09-10T23:00:00Z,29.4412,-92.0613,32.46,11111222 
WAVCIS,ioos:station:WAVCIS:CSI03:1,2010-09-11T00:00:00Z,29.4412,-92.0613,31.03,11111222 
WAVCIS,ioos:station:WAVCIS:CSI03:1,2010-09-11T01:00:00Z,29.4412,-92.0613,30.46,11111222 
WAVCIS,ioos:station:WAVCIS:CSI03:1,2010-09-11T02:00:00Z,29.4412,-92.0613,29.88,11111222 
WAVCIS,ioos:station:WAVCIS:CSI03:1,2010-09-11T03:00:00Z,29.4412,-92.0613,29.67,11111222 
WAVCIS,ioos:station:WAVCIS:CSI03:1,2010-09-11T04:00:00Z,29.4412,-92.0613,29.64,11111222 
WAVCIS,ioos:station:WAVCIS:CSI03:1,2010-09-11T05:00:00Z,29.4412,-92.0613,29.5,11111222 
WAVCIS,ioos:station:WAVCIS:CSI03:1,2010-09-11T06:00:00Z,29.4412,-92.0613,29.7,11111222 
WAVCIS,ioos:station:WAVCIS:CSI03:1,2010-09-11T07:00:00Z,29.4412,-92.0613,29.79,11111222 
WAVCIS,ioos:station:WAVCIS:CSI03:1,2010-09-11T08:00:00Z,29.4412,-92.0613,30.25,11111222 
WAVCIS,ioos:station:WAVCIS:CSI03:1,2010-09-11T09:00:00Z,29.4412,-92.0613,29.72,11111222 
WAVCIS,ioos:station:WAVCIS:CSI03:1,2010-09-11T10:00:00Z,29.4412,-92.0613,30.41,11111222 
WAVCIS,ioos:station:WAVCIS:CSI03:1,2010-09-11T11:00:00Z,29.4412,-92.0613,29.25,11111222 
WAVCIS,ioos:station:WAVCIS:CSI03:1,2010-09-11T12:00:00Z,29.4412,-92.0613,29.21,11111222 
WAVCIS,ioos:station:WAVCIS:CSI03:1,2010-09-11T13:00:00Z,29.4412,-92.0613,31.14,11111222 
WAVCIS,ioos:station:WAVCIS:CSI03:1,2010-09-11T14:00:00Z,29.4412,-92.0613,30.64,11111222 
WAVCIS,ioos:station:WAVCIS:CSI03:1,2010-09-11T15:00:00Z,29.4412,-92.0613,30.47,11111222 
WAVCIS,ioos:station:WAVCIS:CSI03:1,2010-09-11T16:00:00Z,29.4412,-92.0613,30.27,11111222 
WAVCIS,ioos:station:WAVCIS:CSI03:1,2010-09-11T17:00:00Z,29.4412,-92.0613,31.56,11111222 
WAVCIS,ioos:station:WAVCIS:CSI03:1,2010-09-11T18:00:00Z,29.4412,-92.0613,31.7,11111222 
WAVCIS,ioos:station:WAVCIS:CSI03:1,2010-09-11T19:00:00Z,29.4412,-92.0613,32.31,11111222 
WAVCIS,ioos:station:WAVCIS:CSI03:1,2010-09-11T20:00:00Z,29.4412,-92.0613,32.43,11111222 
WAVCIS,ioos:station:WAVCIS:CSI03:1,2010-09-11T21:00:00Z,29.4412,-92.0613,32.66,11111222 
WAVCIS,ioos:station:WAVCIS:CSI03:1,2010-09-11T22:00:00Z,29.4412,-92.0613,32.17,11111222 
WAVCIS,ioos:station:WAVCIS:CSI03:1,2010-09-11T23:00:00Z,29.4412,-92.0613,31.45,11111222 
WAVCIS,ioos:station:WAVCIS:CSI03:1,2010-09-12T00:00:00Z,29.4412,-92.0613,30.76,11111222 
WAVCIS,ioos:station:WAVCIS:CSI03:1,2010-09-12T01:00:00Z,29.4412,-92.0613,30.26,11111222 
WAVCIS,ioos:station:WAVCIS:CSI03:1,2010-09-12T02:00:00Z,29.4412,-92.0613,30.32,11111222 
WAVCIS,ioos:station:WAVCIS:CSI03:1,2010-09-12T03:00:00Z,29.4412,-92.0613,30.12,11111222 
WAVCIS,ioos:station:WAVCIS:CSI03:1,2010-09-12T04:00:00Z,29.4412,-92.0613,29.93,11111222 